Location: Caracas
(10.5000°N, 66.9170°W)
Time: 09:47:11
(UTC-04:00)

Tiangong 1 - Visible Passes

Search period start: 19 February 2018 00:00
Search period end: 01 March 2018 00:00
Orbit: 249 x 271 km, 42.8° (Epoch: 19 February)

Date Brightness Start Highest point End Pass type
(mag) Time Alt. Az. Time Alt. Az. Time Alt. Az.
23 Feb 1.5 06:17:31 10° NNW 06:19:39 38° NE 06:21:49 10° ESE visible
23 Feb 2.6 19:05:59 10° SSE 19:07:07 13° SE 19:08:06 11° ESE visible
24 Feb 0.2 06:10:51 12° NW 06:12:52 66° SW 06:15:07 10° SE visible
24 Feb 1.3 18:58:07 10° SSW 19:00:10 28° SE 19:02:11 10° ENE visible
25 Feb 1.6 06:04:56 18° W 06:05:48 23° SW 06:07:41 10° SSE visible
26 Feb 2.9 05:58:48 10° SW 05:58:48 10° SW 05:58:59 10° SSW visible
